Stations météo

réclame
Mon MeteoGroup
Nice, France (7690): Température de l'air & dewpoint: 13.06.2018 20:00:00 - 19.06.2018 20:00:00 (CEST)Nice, France (7690): Température de l'air 5cm: 13.06.2018 20:00:00 - 19.06.2018 20:00:00 (CEST)Nice, France (7690): Température de l'air -20cm & Température de l'air -100cm: 13.06.2018 20:00:00 - 19.06.2018 20:00:00 (CEST)Nice, France (7690): Vitesse du vent & gusts: 13.06.2018 20:00:00 - 19.06.2018 20:00:00 (CEST)Nice, France (7690): Direction du vent: 13.06.2018 20:00:00 - 19.06.2018 20:00:00 (CEST)Nice, France (7690): reduced air pressure: 13.06.2018 20:00:00 - 19.06.2018 20:00:00 (CEST)Nice, France (7690): visibility: 13.06.2018 20:00:00 - 19.06.2018 20:00:00 (CEST)Nice, France (7690): Ensoleillement: 13.06.2018 20:00:00 - 19.06.2018 20:00:00 (CEST)Nice, France (7690): Quantités de précipitations: 13.06.2018 20:00:00 - 19.06.2018 20:00:00 (CEST)
Date & Time tt [°C] td [°C] tt 5cm [°C] tt -20cm [°C] tt -100cm [°C] ff [km/h] ff [knt] fx [km/h] fx [knt] dd ppp [hPa] vv [km] sd [min] rr [mm]
19.06.2018 20:00:00 - - - - - - - - - - - - - -
19.06.2018 19:00:00 26,8 19,9 32,5 23,0 21,5 5 3 8 4 SSE 1017,8 40 60 0,0
19.06.2018 18:00:00 27,0 19,1 34,6 23,0 21,5 5 3 9 5 SE 1018,3 40 60 0,0
19.06.2018 17:00:00 26,8 19,7 35,4 23,0 21,6 7 4 9 5 SE 1018,7 40 60 0,0
19.06.2018 16:00:00 26,5 20,6 36,1 23,0 21,5 6 3 9 5 ESE 1019,0 40 60 0,0
19.06.2018 15:00:00 26,7 20,3 36,1 23,0 21,4 5 3 12 6 ESE 1019,3 40 60 0,0
19.06.2018 14:00:00 26,4 20,5 35,5 23,0 21,4 9 5 14 8 ESE 1019,4 40 60 0,0
19.06.2018 13:00:00 27,2 19,5 34,6 23,0 21,4 12 6 20 11 ESE 1019,5 40 60 0,0
19.06.2018 12:00:00 26,9 19,0 34,3 23,0 21,4 16 9 19 10 ESE 1019,5 40 60 0,0
19.06.2018 11:00:00 26,9 17,9 34,8 23,0 21,4 10 6 15 8 E 1019,5 40 60 0,0
19.06.2018 10:00:00 27,4 16,7 33,4 23,0 21,4 5 3 10 6 ENE 1019,3 40 60 0,0
19.06.2018 09:00:00 26,7 15,4 28,4 22,9 21,4 7 4 16 9 NNE 1019,2 40 60 0,0
19.06.2018 08:00:00 24,7 15,3 24,6 22,9 21,4 10 6 23 12 NNW 1018,8 40 60 0,0
19.06.2018 07:00:00 23,4 14,9 22,0 22,9 21,4 12 7 23 12 NNW 1018,4 40 43 0,0
19.06.2018 06:00:00 22,8 14,9 21,9 22,9 21,5 15 8 23 13 NNW 1017,7 40 0 0,0
19.06.2018 05:00:00 23,0 14,8 22,1 22,9 21,5 14 8 23 13 NNW 1017,4 25 0 0,0
19.06.2018 04:00:00 23,3 14,8 22,0 22,9 21,4 13 7 19 11 NNW 1017,1 25 0 0,0
19.06.2018 03:00:00 23,6 15,1 22,2 22,9 21,4 13 7 19 11 N 1017,1 25 0 0,0
19.06.2018 02:00:00 24,1 15,0 22,6 22,8 21,3 15 8 21 11 NNW 1017,1 25 0 0,0
19.06.2018 01:00:00 24,2 15,1 22,4 22,8 21,4 11 6 16 9 NNW 1017,0 25 0 0,0
19.06.2018 00:00:00 24,3 15,8 22,9 22,8 21,4 11 6 13 7 NNW 1017,2 25 0 0,0
18.06.2018 23:00:00 24,7 16,4 21,3 22,8 21,4 9 5 12 7 NNW 1016,9 25 0 0,0
18.06.2018 22:00:00 23,7 18,3 21,7 22,7 21,3 2 1 11 6 WSW 1016,5 25 0 0,0
18.06.2018 21:00:00 24,8 17,5 23,9 22,7 21,4 10 5 16 9 SW 1016,0 40 5 0,0
18.06.2018 20:00:00 25,4 19,5 25,9 22,7 21,3 11 6 16 8 SW 1015,8 40 13 0,0
18.06.2018 19:00:00 26,5 19,4 29,2 22,7 21,4 11 6 16 9 SSW 1015,8 40 45 0,0
18.06.2018 18:00:00 26,1 20,7 32,0 22,7 21,2 13 7 18 10 SSW 1016,0 40 55 0,0
18.06.2018 17:00:00 26,7 19,6 36,2 22,7 21,3 9 5 15 8 S 1016,1 40 60 0,0
18.06.2018 16:00:00 26,8 18,4 35,7 22,7 21,2 9 5 12 7 S 1016,2 40 60 0,0
18.06.2018 15:00:00 26,0 19,2 36,5 22,7 21,4 9 5 11 6 SSE 1016,3 40 60 0,0
18.06.2018 14:00:00 25,7 19,3 35,0 22,7 21,2 6 3 10 5 SSE 1016,2 40 60 0,0
18.06.2018 13:00:00 24,9 20,2 29,0 22,7 21,4 7 4 11 6 SSE 1016,4 40 55 0,0
18.06.2018 12:00:00 23,9 20,0 27,8 22,7 21,2 6 4 10 5 SSE 1016,2 40 11 0,0
18.06.2018 11:00:00 23,5 20,0 27,9 22,7 21,3 6 4 8 5 SSE 1016,0 40 7 0,0
18.06.2018 10:00:00 24,1 19,4 26,4 22,7 21,3 5 3 6 4 ESE 1015,9 40 27 0,0
18.06.2018 09:00:00 23,2 19,6 23,5 22,7 21,2 5 3 12 7 NE 1015,9 40 2 0,0
18.06.2018 08:00:00 23,4 16,7 21,7 22,6 21,2 5 3 22 12 ENE 1015,1 40 26 0,0
18.06.2018 07:00:00 21,9 15,7 20,5 22,6 21,1 11 6 17 9 N 1014,6 40 0 0,0
18.06.2018 06:00:00 21,6 16,1 20,3 22,6 21,3 8 4 13 7 NNW 1014,4 40 0 0,0
18.06.2018 05:00:00 21,8 17,2 20,7 22,6 21,3 5 3 11 6 N 1014,1 40 0 0,0
18.06.2018 04:00:00 22,0 19,2 20,9 22,6 21,3 9 5 13 7 NNE 1014,2 40 0 0,0
18.06.2018 03:00:00 22,5 20,4 21,5 22,5 21,2 10 5 19 10 E 1014,1 40 0 0,0
18.06.2018 02:00:00 22,7 20,0 20,8 22,5 21,2 18 10 27 14 ENE 1014,0 40 0 0,0
18.06.2018 01:00:00 23,2 17,0 20,8 22,5 21,2 4 2 14 8 NNE 1013,9 40 0 0,0
18.06.2018 00:00:00 21,9 17,5 20,6 22,5 21,1 11 6 15 8 NNW 1014,0 40 0 0,0
17.06.2018 23:00:00 22,9 19,3 21,0 22,5 21,1 5 3 10 5 W 1014,1 40 0 0,0
17.06.2018 22:00:00 22,5 19,9 21,7 22,4 21,1 9 5 14 8 W 1013,9 40 0 0,0
17.06.2018 21:00:00 23,0 20,5 23,0 22,4 21,2 5 3 13 7 SSW 1013,5 40 0 0,0
17.06.2018 20:00:00 23,5 19,8 23,9 22,4 21,0 8 4 13 7 SSW 1013,7 40 22 0,0
17.06.2018 19:00:00 24,7 19,3 29,3 22,4 21,0 9 5 13 7 SSW 1013,6 40 58 0,0
17.06.2018 18:00:00 24,8 19,2 28,1 22,4 21,2 5 3 12 7 S 1013,9 40 46 0,0
17.06.2018 17:00:00 24,8 19,8 33,4 22,4 21,2 9 5 12 7 SE 1013,9 40 60 0,0
17.06.2018 16:00:00 24,7 19,8 33,7 22,4 21,1 8 4 11 6 SSE 1014,4 40 60 0,0
17.06.2018 15:00:00 24,3 20,0 32,2 22,4 21,1 8 4 11 6 SE 1014,6 40 58 0,0
17.06.2018 14:00:00 24,8 20,3 33,1 22,4 21,1 8 4 12 7 ESE 1015,0 40 60 0,0
17.06.2018 13:00:00 24,4 20,3 32,9 22,4 21,1 8 4 13 7 ESE 1014,9 40 60 0,0
17.06.2018 12:00:00 24,1 20,2 31,8 22,4 21,0 9 5 14 7 ESE 1014,8 40 60 0,0
17.06.2018 11:00:00 24,1 20,2 30,0 22,4 21,0 11 6 14 8 ESE 1014,5 40 60 0,0
17.06.2018 10:00:00 23,7 19,2 30,2 22,3 20,9 11 6 13 7 ESE 1014,2 40 60 0,0
17.06.2018 09:00:00 23,7 17,9 27,7 22,4 21,1 6 4 10 6 E 1013,9 40 60 0,0
17.06.2018 08:00:00 23,3 18,2 21,8 22,3 20,9 8 4 11 6 NNE 1013,8 40 57 0,0
17.06.2018 07:00:00 21,5 16,0 19,5 22,3 21,1 6 3 9 5 N 1013,6 40 1 0,0
17.06.2018 06:00:00 20,8 16,0 18,8 22,3 21,1 6 3 10 6 N 1013,4 40 0 0,0
17.06.2018 05:00:00 21,0 16,0 19,5 22,2 21,0 9 5 11 6 NE 1012,9 40 0 0,0
17.06.2018 04:00:00 21,4 17,0 20,2 22,3 21,0 7 4 11 6 NNE 1012,9 20 0 0,0
17.06.2018 03:00:00 22,1 17,0 20,5 22,2 21,0 7 4 16 9 N 1013,1 20 0 0,0
17.06.2018 02:00:00 22,4 15,5 20,4 22,2 21,0 6 3 10 5 NNE 1012,9 20 0 0,0
17.06.2018 01:00:00 22,8 15,1 20,8 22,2 21,0 6 3 13 7 NNE 1012,7 20 0 0,0
17.06.2018 00:00:00 22,1 15,7 20,0 22,1 21,0 12 6 17 9 NW 1012,7 20 0 0,0
16.06.2018 23:00:00 21,8 18,8 20,4 22,1 21,1 6 3 8 5 W 1012,5 20 0 0,0
16.06.2018 22:00:00 22,2 19,6 20,5 22,1 20,9 5 3 6 4 S 1012,2 20 0 0,0
16.06.2018 21:00:00 22,4 19,6 21,8 22,1 21,0 4 2 6 3 S 1012,0 30 7 0,0
16.06.2018 20:00:00 23,4 19,5 25,1 22,1 21,0 2 1 9 5 SE 1012,2 40 55 0,0
16.06.2018 19:00:00 23,9 18,8 28,7 22,1 20,9 5 3 8 4 SE 1012,2 40 60 0,0
16.06.2018 18:00:00 24,3 18,7 30,4 22,1 20,9 8 4 11 6 ESE 1012,2 40 60 0,0
16.06.2018 17:00:00 24,5 18,2 31,7 22,1 21,1 8 4 12 7 SSE 1012,5 40 60 0,0
16.06.2018 16:00:00 24,8 19,2 31,5 22,1 21,0 10 5 12 7 SE 1012,7 40 60 0,0
16.06.2018 15:00:00 24,5 19,6 33,5 22,1 21,0 8 4 11 6 SE 1012,9 40 60 0,0
16.06.2018 14:00:00 24,7 19,5 33,1 22,1 21,0 10 6 14 8 ESE 1013,0 40 60 0,0
16.06.2018 13:00:00 25,0 18,2 32,8 22,1 20,8 11 6 15 8 ESE 1013,1 40 60 0,0
16.06.2018 12:00:00 25,3 18,0 34,0 22,1 20,9 12 6 14 8 ESE 1012,9 40 60 0,0
16.06.2018 11:00:00 25,3 16,2 33,3 22,1 21,0 7 4 11 6 E 1013,0 40 60 0,0
16.06.2018 10:00:00 25,6 14,4 31,1 22,0 20,9 5 3 8 5 E 1013,0 40 60 0,0
16.06.2018 09:00:00 24,5 14,6 23,8 22,0 20,9 5 3 16 9 E 1012,8 40 55 0,0
16.06.2018 08:00:00 22,7 14,3 22,6 22,0 20,9 9 5 18 10 NNW 1012,6 40 54 0,0
16.06.2018 07:00:00 21,5 13,9 19,0 22,0 20,9 16 8 19 11 NNW 1012,4 48 41 0,0
16.06.2018 06:00:00 21,3 14,0 18,9 22,0 20,9 3 2 10 5 NNE 1012,2 40 0 0,0
16.06.2018 05:00:00 21,2 13,9 19,0 22,0 20,9 8 4 13 7 NNW 1011,9 50 0 0,0
16.06.2018 04:00:00 21,8 14,2 20,1 22,0 21,0 9 5 16 8 NE 1011,8 50 0 0,0
16.06.2018 03:00:00 22,1 14,0 20,4 21,9 20,9 9 5 16 9 N 1011,7 50 0 0,0
16.06.2018 02:00:00 22,1 14,2 20,5 21,9 20,9 10 5 14 7 N 1011,8 50 0 0,0
16.06.2018 01:00:00 22,2 14,3 20,0 21,9 20,9 10 5 14 8 NNW 1011,7 50 0 0,0
16.06.2018 00:00:00 22,5 15,1 19,0 21,9 21,0 8 5 12 7 NNW 1011,6 50 0 0,0
15.06.2018 23:00:00 22,1 15,0 18,4 21,9 20,9 0 0 6 3 N 1011,4 50 0 0,0
15.06.2018 22:00:00 22,6 16,8 21,5 21,9 20,8 5 3 8 4 SE 1011,3 50 0 0,0
15.06.2018 21:00:00 23,1 18,4 22,1 21,9 20,8 5 3 5 3 E 1011,0 50 14 0,0
15.06.2018 20:00:00 23,6 17,8 25,3 21,9 20,8 3 2 9 5 ESE 1010,9 50 46 0,0
15.06.2018 19:00:00 24,3 17,8 26,9 21,9 21,0 8 4 16 9 S 1011,0 50 41 0,0
15.06.2018 18:00:00 24,7 16,9 30,3 21,9 20,9 13 7 17 9 S 1011,1 50 56 0,0
15.06.2018 17:00:00 24,9 18,8 30,2 21,9 20,9 7 4 13 7 SSE 1011,0 50 29 0,0
15.06.2018 16:00:00 25,0 18,4 32,0 21,9 20,8 9 5 14 8 S 1011,0 50 55 0,0
15.06.2018 15:00:00 24,9 18,3 31,8 21,9 20,8 9 5 13 7 SSE 1010,9 50 48 0,0
15.06.2018 14:00:00 25,0 18,2 35,5 21,9 20,9 9 5 13 7 S 1011,1 50 60 0,0
15.06.2018 13:00:00 24,7 18,2 34,0 21,9 20,9 9 5 13 7 S 1011,1 50 60 0,0
15.06.2018 12:00:00 24,1 17,6 33,1 21,9 20,8 8 5 14 7 SSE 1011,3 50 60 0,0
15.06.2018 11:00:00 24,0 18,4 31,4 21,9 20,9 13 7 18 10 SSE 1011,0 50 58 0,0
15.06.2018 10:00:00 25,5 14,3 29,9 21,9 20,9 8 4 17 9 ESE 1010,9 40 60 0,0
15.06.2018 09:00:00 24,4 13,3 25,8 21,9 20,8 11 6 21 11 NNW 1010,8 40 60 0,0
15.06.2018 08:00:00 22,2 13,8 20,4 21,9 20,9 16 9 28 15 NNW 1010,4 40 50 0,0
15.06.2018 07:00:00 20,8 13,7 19,2 21,9 20,9 14 8 23 13 NNW 1010,0 40 42 0,0
15.06.2018 06:00:00 20,2 13,4 18,9 21,9 20,9 13 7 19 10 NW 1009,8 40 0 0,0
15.06.2018 05:00:00 20,5 13,7 19,0 21,9 20,9 14 8 21 11 NNW 1009,3 40 0 0,0
15.06.2018 04:00:00 20,7 14,1 19,2 21,8 20,9 13 7 18 10 NNW 1009,2 40 0 0,0
15.06.2018 03:00:00 21,4 14,1 19,5 21,8 20,9 13 7 19 10 N 1009,4 40 0 0,0
15.06.2018 02:00:00 21,5 14,4 19,6 21,8 20,9 10 5 14 8 N 1009,4 40 0 0,0
15.06.2018 01:00:00 21,2 14,8 19,8 21,9 20,9 8 4 16 9 NNW 1009,6 40 0 0,0
15.06.2018 00:00:00 21,6 15,0 19,5 21,8 21,0 9 5 11 6 NNW 1009,8 40 0 0,0
14.06.2018 23:00:00 22,8 14,6 19,3 21,8 20,8 5 3 9 5 NE 1009,8 40 0 0,0
14.06.2018 22:00:00 22,4 16,7 20,7 21,8 20,9 10 5 22 12 W 1009,4 40 0 0,0
14.06.2018 21:00:00 23,6 15,6 22,8 21,8 20,8 16 9 26 14 SW 1008,8 40 15 0,0
14.06.2018 20:00:00 23,9 16,7 25,0 21,8 20,8 18 10 24 13 SSW 1008,6 40 55 0,0
14.06.2018 19:00:00 24,5 16,2 27,1 21,8 20,9 18 10 28 15 SSW 1008,6 40 60 0,0
14.06.2018 18:00:00 25,0 16,2 30,0 21,8 20,9 21 11 26 14 SSW 1008,6 40 60 0,0
14.06.2018 17:00:00 25,2 16,1 27,1 21,8 20,8 20 11 25 14 SW 1008,8 40 37 0,0
14.06.2018 16:00:00 24,4 16,9 27,1 21,8 20,9 19 10 26 14 SSW 1008,8 40 20 0,0
14.06.2018 15:00:00 24,8 17,5 33,2 21,8 20,8 18 10 24 13 S 1009,0 40 60 0,0
14.06.2018 14:00:00 25,0 17,0 33,5 21,9 20,9 16 8 21 11 SSW 1008,9 40 60 0,0
14.06.2018 13:00:00 24,1 17,6 32,6 21,9 20,8 13 7 17 9 SSW 1009,0 40 60 0,0
14.06.2018 12:00:00 23,5 17,5 32,4 21,9 20,9 11 6 15 8 S 1008,8 40 60 0,0
14.06.2018 11:00:00 23,6 16,9 31,7 21,9 20,8 9 5 11 6 SSE 1008,2 40 60 0,0
14.06.2018 10:00:00 24,8 13,7 27,6 21,9 20,8 7 4 19 11 ESE 1007,9 40 60 0,0
14.06.2018 09:00:00 22,5 13,8 23,3 21,9 20,9 18 10 29 16 NNW 1007,8 40 60 0,0
14.06.2018 08:00:00 20,2 13,6 18,3 21,9 20,9 15 8 28 15 NNW 1007,5 40 49 0,0
14.06.2018 07:00:00 18,7 13,5 17,6 21,9 20,8 12 7 26 14 N 1007,4 40 2 0,0
14.06.2018 06:00:00 18,7 14,0 17,2 21,9 20,8 16 9 22 12 NNW 1006,8 40 0 0,0
14.06.2018 05:00:00 18,7 14,4 16,4 21,9 20,8 13 7 20 11 NW 1006,7 25 0 0,0
14.06.2018 04:00:00 18,7 15,0 17,0 21,9 20,9 10 6 19 10 NW 1006,3 25 0 0,0
14.06.2018 03:00:00 18,7 15,6 17,1 21,9 20,8 8 5 16 8 NW 1006,5 25 0 0,0
14.06.2018 02:00:00 19,3 15,8 17,8 21,9 20,8 7 4 11 6 NNW 1006,7 25 0 0,0
14.06.2018 01:00:00 19,7 15,8 18,2 21,9 20,9 5 3 8 4 NW 1006,7 25 0 0,0
14.06.2018 00:00:00 19,5 16,0 17,9 21,9 20,8 0 0 9 5 N 1006,7 25 0 0,0
13.06.2018 23:00:00 19,7 15,8 17,7 21,9 20,8 6 3 7 4 SW 1006,1 25 0 0,0
13.06.2018 22:00:00 20,4 16,4 18,2 21,9 20,9 0 0 5 3 N 1005,8 25 0 0,0
13.06.2018 21:00:00 20,9 15,9 20,0 21,9 20,8 0 0 7 4 N 1005,4 40 30 0,0
13.06.2018 20:00:00 20,7 15,5 20,0 21,9 20,8 4 2 9 5 E 1005,4 40 0 0,0

tt = Température de l'air
td = dewpoint
tt 5cm = Température de l'air 5cm
tt -20cm = Température de l'air -20cm
tt -100cm = Température de l'air -100cm
ff = Vitesse du vent
fx = gusts
dd = Direction du vent
ppp = reduced air pressure
vv = visibility
sd = Ensoleillement
rr = Quantités de précipitations

stations d'obs. à proximité